Beckley, WV

3:42 AM EST on November 12, 2019 (GMT -0500)
Raleigh County Memorial

Weather History for KBKW - July, 2019

Change the Weather History Date:

Friday, July 19, 2019

  Actual Average Record
Temperature  
Mean Temperature 79 °F 71 °F  
Max Temperature 88 °F 80 °F 98 °F (1926)
Min Temperature 70 °F 62 °F 43 °F (1909)
Degree Days  
Heating Degree Days 0 0  
Month to date heating degree days 0 0  
Since 1 June heating degree days 33 39  
Since 1 July heating degree days 0 0  
Cooling Degree Days 14 6  
Month to date cooling degree days 201 114  
Year to date cooling degree days 427 266  
Since 1 June cooling degree days 307 225  
Growing Degree Days 29 (Base 50)    
Moisture  
Dew Point 68 °F    
Average Humidity 75    
Maximum Humidity 100    
Minimum Humidity 50    
Precipitation  
Precipitation 0.00 in 0.17 in 1.78 in (1966)
Month to date precipitation 2.97 3.04  
Year to date precipitation 25.86 24.20  
Sea Level Pressure  
Sea Level Pressure 30.05 in    
Wind  
Wind Speed 5 mph (WSW)    
Max Wind Speed 12 mph    
Max Gust Speed 17 mph    
Visibility 9 miles    
Events      
T = Trace of Precipitation, MM = Missing Value Source: NWS Daily Summary

Daily Weather History Graph

Daily Weather History Graph

Search for Another Location

Airport or City:

Astronomy

Jul. 19, 2019 Rise Set
Actual Time 6:17 AM EDT 8:43 PM EDT
Civil Twilight 5:47 AM EDT 9:13 PM EDT
Nautical Twilight 5:09 AM EDT 9:51 PM EDT
Astronomical Twilight 4:28 AM EDT 10:32 PM EDT
Moon 10:43 PM EDT (7/19) 8:40 AM EDT (7/19)
Length of Visible Light 15h 26m
Length of Day
14h 26m
Waning Gibbous, 93% of the Moon is Illuminated
Jul 19
Waning Gibbous
Jul 24
Last Quarter
Jul 31
New
Aug 7
First Quarter
Aug 15
Full

Hourly Weather History & Observations

Time (EDT) Temp. Heat Index Dew Point Humidity Pressure Visibility Wind Dir Wind Speed Gust Speed Precip Events Conditions
12:51 AM 71.1 °F - 69.1 °F 93% 30.01 in 10.0 mi SW 4.6 mph - N/A   Clear
1:51 AM 71.1 °F - 68.0 °F 90% 30.01 in 10.0 mi SSW 5.8 mph - N/A   Clear
2:51 AM 71.1 °F - 68.0 °F 90% 30.00 in 9.0 mi SW 5.8 mph - N/A   Clear
3:51 AM 71.1 °F - 68.0 °F 90% 29.99 in 10.0 mi SW 4.6 mph - N/A   Mostly Cloudy
4:10 AM 70.0 °F - 68.0 °F 93% 30.09 in 7.0 mi SW 6.9 mph - N/A   Mostly Cloudy
4:21 AM 70.0 °F - 68.0 °F 93% 30.10 in 7.0 mi SW 5.8 mph - N/A   Mostly Cloudy
4:51 AM 70.0 °F - 68.0 °F 93% 29.99 in 6.0 mi WSW 3.5 mph - N/A   Mostly Cloudy
5:51 AM 70.0 °F - 69.1 °F 97% 30.01 in 6.0 mi SSW 5.8 mph - N/A   Overcast
6:02 AM 70.0 °F - 68.0 °F 93% 30.12 in 6.0 mi SW 4.6 mph - N/A   Overcast
6:51 AM 70.0 °F - 68.0 °F 93% 30.01 in 4.0 mi Calm Calm - N/A   Overcast
6:59 AM 70.0 °F - 68.0 °F 93% 30.13 in 4.0 mi SW 3.5 mph - N/A   Overcast
7:45 AM 71.6 °F - 69.8 °F 94% 30.13 in 4.0 mi WSW 3.5 mph - N/A   Overcast
7:51 AM 72.0 °F - 69.1 °F 91% 30.03 in 5.0 mi WSW 4.6 mph - N/A   Overcast
8:51 AM 73.0 °F - 70.0 °F 90% 30.05 in 7.0 mi WSW 4.6 mph - N/A   Mostly Cloudy
9:16 AM 73.9 °F - 70.0 °F 87% 30.17 in 8.0 mi SW 4.6 mph - N/A   Overcast
9:31 AM 75.9 °F - 71.1 °F 85% 30.16 in 9.0 mi Calm Calm - N/A   Mostly Cloudy
9:41 AM 75.9 °F - 70.0 °F 82% 30.16 in 10.0 mi WSW 4.6 mph - N/A   Mostly Cloudy
9:51 AM 78.1 °F - 70.0 °F 76% 30.05 in 10.0 mi West 5.8 mph - N/A   Scattered Clouds
9:58 AM 77.0 °F - 70.0 °F 79% 30.16 in 10.0 mi WSW 5.8 mph - N/A   Mostly Cloudy
10:08 AM 75.9 °F - 69.1 °F 79% 30.16 in 10.0 mi West 4.6 mph - N/A   Mostly Cloudy
10:41 AM 77.0 °F - 69.1 °F 76% 30.16 in 10.0 mi WNW 8.1 mph - N/A   Mostly Cloudy
10:51 AM 79.0 °F - 69.1 °F 72% 30.05 in 10.0 mi WSW 6.9 mph - N/A   Mostly Cloudy
11:18 AM 79.0 °F - 69.1 °F 72% 30.17 in 10.0 mi West 6.9 mph - N/A   Overcast
11:51 AM 81.0 °F 83.8 °F 68.0 °F 65% 30.06 in 10.0 mi West 10.4 mph - N/A   Mostly Cloudy
12:51 PM 82.9 °F 86.5 °F 69.1 °F 63% 30.06 in 10.0 mi WNW 8.1 mph - N/A   Mostly Cloudy
1:51 PM 84.9 °F 88.2 °F 68.0 °F 57% 30.03 in 10.0 mi Variable 4.6 mph - N/A   Partly Cloudy
2:51 PM 84.9 °F 87.6 °F 66.9 °F 55% 30.01 in 10.0 mi West 6.9 mph - N/A   Partly Cloudy
3:51 PM 87.1 °F 89.2 °F 66.0 °F 49% 30.00 in 10.0 mi Variable 3.5 mph - N/A   Clear
4:51 PM 88.0 °F 90.3 °F 66.0 °F 48% 29.98 in 10.0 mi WNW 8.1 mph - N/A   Scattered Clouds
5:51 PM 87.1 °F 89.2 °F 66.0 °F 49% 29.97 in 10.0 mi West 8.1 mph - N/A   Scattered Clouds
6:51 PM 86.0 °F 88.8 °F 66.9 °F 53% 29.97 in 10.0 mi West 8.1 mph - N/A   Clear
7:51 PM 84.0 °F 86.5 °F 66.9 °F 56% 29.98 in 10.0 mi WNW 5.8 mph - N/A   Clear
8:51 PM 80.1 °F 82.7 °F 68.0 °F 67% 29.99 in 10.0 mi WNW 3.5 mph - N/A   Clear
9:51 PM 75.9 °F - 69.1 °F 79% 30.01 in 10.0 mi Calm Calm - N/A   Clear
10:51 PM 73.9 °F - 69.1 °F 85% 30.02 in 10.0 mi Calm Calm - N/A   Clear
11:51 PM 73.0 °F - 69.1 °F 87% 30.02 in 10.0 mi Calm Calm - N/A   Clear